Powrót do katalogu

STARLINK-30119

AktywnyŁącznośćVLEO
NORAD 56823·PAYLOAD·🇺🇸 United States

Wystrzelony Jun 4, 2023 z Cape Canaveral Space Force Station

Loading…

Następne Przeloty (najbliższe 24 godziny)

TLE

ŚwieżeSource: CelesTrak SupGP

Epoka: Sep 14, 2026, 22:14 UTC

1 56823C 23079A   26257.92687500  .00010306  00000+0  37322-3 0  2570
2 56823  42.9991 118.5733 0001345 264.2227 214.0000 15.27578062    17

Śledź STARLINK-30119 w czasie rzeczywistym z AllMySat

Download on the App Store